Location: Hermaringen
(48.5952°N, 10.2585°E)
Time: 11:08:12
(UTC+00:00)

Courier 1B - Pass Details

Date: 18 February 2026
Orbit: 962 x 1208 km, 28.3° (Epoch: 7 March)

Event Time Altitude Azimuth Distance (km) Brightness Sun altitude
Rises 20:47:19 0° 235° (SW) 3,977 10.9 -39.4°
Enters shadow 20:50:10 - 222° (SW) 3,301 10.3 -39.8°
Reaches altitude 10° 20:51:25 10° 214° (SW) 3,061 - -40.0°
Maximum altitude 20:55:32 15° 181° (S) 2,700 - -40.5°
Drops below altitude 10° 20:59:43 10° 148° (SSE) 3,123 - -41.1°
Sets 21:03:58 0° 127° (SE) 4,102 - -41.6°
